Regional Weather Roundup
Issued by NWS

Home | Current Version | Previous Version | Graphics & Text | Print | Product List | Glossary On
Versions: 1 2 3 4 5 6 7 8 9 10 11 12 13 14 15 16 17 18 19 20 21 22 23 24 25 26 27 28 29 30 31 32 33 34 35 36 37 38 39 40 41 42 43 44 45 46 47 48 49 50
834
ASUS43 KBIS 180210
RWRND

NORTH DAKOTA REGIONAL WEATHER ROUNDUP
NATIONAL WEATHER SERVICE BISMARCK ND
900 PM CDT TUE OCT 17 2017

NOTE: "FAIR" INDICATES FEW OR NO CLOUDS BELOW 12,000 FEET WITH NO
SIGNIFICANT WEATHER AND/OR OBSTRUCTIONS TO VISIBILITY.


NDZ001>003-009>011-017-180300-
NORTHWEST NORTH DAKOTA

CITY           SKY/WX    TMP DP  RH WIND       PRES   REMARKS
WILLISTON      CLOUDY    61  27  27 SW8       29.54F
MINOT          CLOUDY    65  28  24 SW9G18    29.55F
MINOT AFB      CLOUDY    62  28  27 SW16      29.52F
$$

NDZ018>021-031>035-040>046-180300-
SOUTHWEST NORTH DAKOTA

CITY           SKY/WX    TMP DP  RH WIND       PRES   REMARKS
BISMARCK       CLEAR     59  26  28 CALM      29.68F
DICKINSON      CLOUDY    57  24  28 SW13      29.66F
GARRISON         N/A     60  30  32 SW13      29.61F
HETTINGER ARPT CLOUDY    57  23  26 SW13      29.76F
$$

NDZ004>008-012>016-024-026-027-054-180300-
NORTHEAST NORTH DAKOTA

CITY           SKY/WX    TMP DP  RH WIND       PRES   REMARKS
GRAND FORKS    PTCLDY    59  35  40 S12       29.63F
GRND FRKS AFB  CLEAR     56  33  41 S10       29.62F
DEVILS LAKE    CLEAR     62  36  37 S12       29.61F
$$

NDZ022-023-025-028>030-036>039-047>053-180300-
SOUTHEAST NORTH DAKOTA

CITY           SKY/WX    TMP DP  RH WIND       PRES   REMARKS
FARGO          CLEAR     66  43  43 S14G22    29.71F
JAMESTOWN      CLEAR     58  36  43 S13       29.69F
$$





USA.gov is the U.S. government's official web portal to all federal, state and local government web resources and services.